Kipnuk, Kipnuk Airport, AK

12:31 AM AKST on November 13, 2019 (GMT -0900)
Kipnuk

Weather History for PAKI - October, 2019

Change the Weather History Date:

Monday, October 21, 2019

  Actual Average Record
Temperature  
Mean Temperature 34 °F -  
Max Temperature 37 °F - - ()
Min Temperature 30 °F - - ()
Degree Days  
Heating Degree Days 32    
Moisture  
Dew Point 34 °F    
Average Humidity 98    
Maximum Humidity 100    
Minimum Humidity 93    
Precipitation  
Precipitation 0.02 in - - ()
Sea Level Pressure  
Sea Level Pressure 29.47 in    
Wind  
Wind Speed 10 mph ()    
Max Wind Speed 15 mph    
Max Gust Speed -    
Visibility 6.4 miles    
Events Fog , Rain , Snow    
Averages and records for this station are not official NWS values.
T = Trace of Precipitation, MM = Missing Value Source: Averaged Metar Reports

Daily Weather History Graph

Daily Weather History Graph

Search for Another Location

Airport or City:

Astronomy

Oct. 21, 2019 Rise Set
Actual Time 9:50 AM AKDT 7:29 PM AKDT
Civil Twilight 9:07 AM AKDT 8:12 PM AKDT
Nautical Twilight 8:19 AM AKDT 9:01 PM AKDT
Astronomical Twilight 7:30 AM AKDT 9:49 PM AKDT
Moon No Moon Rise 6:13 PM AKDT (10/21)
Length of Visible Light 11h 05m
Length of Day
9h 39m
Waning Gibbous, 47% of the Moon is Illuminated
Oct 21
Waning Gibbous
Oct 27
New
Nov 4
First Quarter
Nov 12
Full
Nov 19
Last Quarter

Hourly Weather History & Observations

Time (AKDT) Temp. Windchill Dew Point Humidity Pressure Visibility Wind Dir Wind Speed Gust Speed Precip Events Conditions
12:09 AM 33.8 °F 25.3 °F 33.8 °F 100% 29.53 in 10.0 mi ENE 11.5 mph - N/A   Mostly Cloudy
12:32 AM 33.8 °F 25.8 °F 32.0 °F 93% 29.53 in 10.0 mi ENE 10.4 mph - N/A   Overcast
12:56 AM 33.1 °F 25.5 °F 32.0 °F 96% 29.55 in 10.0 mi ENE 9.2 mph - N/A   Partly Cloudy
1:56 AM 32.0 °F 23.0 °F 30.9 °F 96% 29.55 in 10.0 mi ENE 11.5 mph - N/A   Clear
2:56 AM 32.0 °F 22.1 °F 30.9 °F 96% 29.53 in 10.0 mi ENE 13.8 mph - N/A   Mostly Cloudy
3:56 AM 32.0 °F 22.1 °F 32.0 °F 100% 29.52 in 10.0 mi ENE 13.8 mph - N/A   Clear
5:56 AM 30.9 °F 20.7 °F 30.9 °F 100% 29.52 in 10.0 mi ENE 13.8 mph - N/A   Overcast
6:06 AM 30.2 °F 19.8 °F 30.2 °F 100% 29.50 in 10.0 mi ENE 13.8 mph - N/A   Overcast
6:56 AM 30.9 °F 20.7 °F 30.0 °F 96% 29.50 in 10.0 mi NE 13.8 mph - N/A   Overcast
7:56 AM 30.9 °F 20.2 °F 30.0 °F 96% 29.49 in 9.0 mi NE 15.0 mph - 0.00 in Snow Light Snow
8:56 AM 32.0 °F 21.6 °F 30.9 °F 96% 29.49 in 9.0 mi NE 15.0 mph - 0.00 in Snow Light Snow
9:00 AM 32.0 °F 21.6 °F 30.2 °F 93% 29.47 in 9.0 mi NE 15.0 mph - 0.00 in Snow Light Snow
9:30 AM 32.0 °F 21.6 °F 30.2 °F 93% 29.47 in 6.0 mi NE 15.0 mph - 0.01 in Snow Light Snow
9:56 AM 32.0 °F 22.5 °F 30.9 °F 96% 29.49 in 3.0 mi NE 12.7 mph - 0.01 in Snow Light Snow
11:56 AM 33.1 °F 23.0 °F 32.0 °F 96% 29.47 in 10.0 mi NE 15.0 mph - N/A   Overcast
12:56 PM 33.1 °F 23.0 °F 33.1 °F 100% 29.47 in 10.0 mi NE 15.0 mph - N/A   Overcast
1:05 PM 33.8 °F 23.9 °F 33.8 °F 100% 29.45 in 10.0 mi NE 15.0 mph - 0.00 in   Overcast
1:56 PM 34.0 °F 24.6 °F 33.1 °F 96% 29.47 in 10.0 mi NE 13.8 mph - 0.01 in   Overcast
2:43 PM 35.6 °F 26.6 °F 33.8 °F 93% 29.45 in 10.0 mi NE 13.8 mph - 0.00 in Rain Light Rain
2:56 PM 35.1 °F 26.9 °F 34.0 °F 96% 29.46 in 10.0 mi NE 11.5 mph - 0.00 in   Overcast
3:26 PM 35.6 °F 26.6 °F 35.6 °F 100% 29.44 in 10.0 mi NE 13.8 mph - N/A   Overcast
3:40 PM 35.6 °F 26.2 °F 35.6 °F 100% 29.44 in 10.0 mi NE 15.0 mph - N/A   Overcast
3:56 PM 36.0 °F 27.5 °F 35.1 °F 97% 29.45 in 10.0 mi NNE 12.7 mph - N/A   Overcast
4:03 PM 37.4 °F 30.3 °F 35.6 °F 93% 29.44 in 10.0 mi NE 10.4 mph - N/A   Overcast
4:24 PM 37.4 °F 29.3 °F 35.6 °F 93% 29.43 in 10.0 mi NE 12.7 mph - N/A   Overcast
4:49 PM 37.4 °F 29.3 °F 35.6 °F 93% 29.43 in 10.0 mi NE 12.7 mph - N/A   Overcast
4:56 PM 37.0 °F - 36.0 °F 96% - - North - - N/A   Unknown
5:07 PM 37.4 °F 28.9 °F 35.6 °F 93% 29.43 in 1.8 mi NE 13.8 mph - N/A   Mist
5:56 PM 37.0 °F 29.8 °F 36.0 °F 96% 29.44 in 9.0 mi NNE 10.4 mph - N/A Rain Light Rain
6:16 PM 37.4 °F 29.8 °F 35.6 °F 93% 29.43 in 10.0 mi NE 11.5 mph - 0.00 in   Overcast
6:24 PM 37.4 °F 29.8 °F 35.6 °F 93% 29.43 in 10.0 mi NE 11.5 mph - 0.00 in   Overcast
6:56 PM 36.0 °F 28.5 °F 36.0 °F 100% 29.44 in 10.0 mi NNE 10.4 mph - 0.00 in   Mostly Cloudy
7:53 PM 35.6 °F 29.9 °F 35.6 °F 100% 29.44 in 10.0 mi NNE 6.9 mph - N/A   Overcast
7:56 PM 36.0 °F 30.3 °F 35.1 °F 97% 29.46 in 10.0 mi NNE 6.9 mph - N/A   Overcast
8:23 PM 35.6 °F 29.2 °F 35.6 °F 100% 29.45 in 2.0 mi NE 8.1 mph - N/A   Overcast
8:31 PM 35.6 °F 29.9 °F 35.6 °F 100% 29.45 in 1.5 mi NE 6.9 mph - N/A   Overcast
8:41 PM 35.6 °F 29.9 °F 35.6 °F 100% 29.45 in 0.8 mi NE 6.9 mph - N/A   Overcast
8:56 PM 36.0 °F 30.3 °F 36.0 °F 100% 29.47 in 0.5 mi NNE 6.9 mph - N/A Fog Fog
9:10 PM 35.6 °F 29.9 °F 35.6 °F 100% 29.46 in 0.2 mi NNE 6.9 mph - N/A Fog Fog
9:30 PM 35.6 °F 31.7 °F 35.6 °F 100% 29.46 in 0.5 mi NE 4.6 mph - N/A Fog Fog
9:56 PM 35.1 °F 31.0 °F 35.1 °F 100% 29.48 in 0.2 mi NE 4.6 mph - N/A Fog Fog
10:04 PM 35.6 °F 31.7 °F 35.6 °F 100% 29.47 in 0.5 mi NE 4.6 mph - N/A Fog Fog
10:14 PM 35.6 °F 30.7 °F 35.6 °F 100% 29.47 in 0.5 mi NE 5.8 mph - N/A Fog Fog
10:21 PM 35.6 °F 30.7 °F 35.6 °F 100% 29.47 in 0.8 mi NE 5.8 mph - N/A   Overcast
10:36 PM 35.6 °F 30.7 °F 35.6 °F 100% 29.48 in 0.8 mi NE 5.8 mph - N/A   Overcast
10:47 PM 35.6 °F 30.7 °F 35.6 °F 100% 29.48 in 1.0 mi NE 5.8 mph - N/A   Overcast
10:56 PM 35.1 °F 30.1 °F 35.1 °F 100% 29.50 in 0.8 mi NE 5.8 mph - N/A   Overcast
11:07 PM 35.6 °F 29.9 °F 35.6 °F 100% 29.49 in 0.5 mi NE 6.9 mph - N/A Fog Fog
11:18 PM 35.6 °F 31.7 °F 35.6 °F 100% 29.49 in 1.0 mi ENE 4.6 mph - 0.00 in Rain Light Rain
11:24 PM 35.6 °F 30.7 °F 35.6 °F 100% 29.49 in 2.0 mi ENE 5.8 mph - 0.00 in Rain Light Rain
11:33 PM 35.6 °F 30.7 °F 35.6 °F 100% 29.49 in 1.2 mi ENE 5.8 mph - 0.00 in   Overcast
11:48 PM 35.6 °F 30.7 °F 35.6 °F 100% 29.50 in 3.0 mi ENE 5.8 mph - 0.00 in   Overcast
11:56 PM 35.1 °F 31.0 °F 35.1 °F 100% 29.51 in 8.0 mi ENE 4.6 mph - 0.00 in   Overcast